(467555) = 2007 TQ129

Discovered at Mount Lemmon on 2007-09-10 by Mt. Lemmon Survey.

Orbit

Orbit type: Main Belt

Note: WebGL enabled browser required.

epoch2023-09-13.0
epoch JD2460200.5
perihelion date2023-04-20.56290
perihelion JD2460055.06290
argument of perihelion (°)303.05611
ascending node (°)39.83922
inclination (°)10.97314
eccentricity0.1953422
perihelion distance (AU)2.4688887
Tisserand w.r.t. Jupiter3.2
ΔV w.r.t. Earth (km/sec)10.4
semimajor axis (AU)3.0682469
mean anomaly (°)26.67126
mean daily motion (°/day)0.18338690
aphelion distance (AU)3.668
period (years)5.37
P-vector [x]0.94595192
P-vector [y]-0.19559191
P-vector [z]-0.25868660
Q-vector [x]0.30050719
Q-vector [y]0.82857493
Q-vector [z]0.47239710
absolute magnitude16.68
phase slope0.15
uncertainty0
referenceMPEC 2023-X62
observations used152
oppositions10
arc length (days)5929
first opposition used2007
last opposition used2023
residual rms (arc-secs)0.69
perturbers coarse indicatorM-v
perturbers precise indicator003Ek
first observation date used2007-09-10.0
last observation date used2023-12-04.0
computer nameMPCLINUX
Minimum Orbit Intersection Distances (in AU)
for orbit epoch: 2460200.5, reference: E2023-X62
Mercury2.07788
Venus1.74657
Earth1.48215
Mars1.10789
Jupiter1.85387
Saturn5.70457
Uranus14.8254
Neptune26.8767

Observations

154 total observations over interval: 2007 09 10.41088 – 2023 12 04.259515
These data are available for download (format description).

